Weather Service Report


499 
ASUS46 KLOX 260803
RWRCA 

SOUTHERN CALIFORNIA WEATHER ROUNDUP
NATIONAL WEATHER SERVICE OXNARD CALIFORNIA
100 AM PDT WED APR 26 2017

NOTE: "FAIR" INDICATES FEW OR NO CLOUDS BELOW 12,000 FEET WITH NO 
SIGNIFICANT WEATHER AND/OR OBSTRUCTIONS TO VISIBILITY.

  -  STATIONS PRECEEDED BY AN ASTERISK (*) ARE NOT NWS OR FAA 
     STATIONS AND ARE NOT SUBJECT TO NWS AND FAA QUALITY CONTROL.

CAZ041-042-087-260900-
LA AND ORANGE COUNTY COASTAL AREAS

  
CITY           SKY/WX    TMP DP  RH WIND       PRES   REMARKS
L.A. DOWNTOWN  CLEAR     65  49  56 VRB3      29.89S                  
L.A. AIRPORT   MOCLDY    64  49  57 SE8       29.89S                  
LONG BEACH     CLEAR     60  53  77 E5        29.90S                  

CITY           SKY/WX    TMP DP  RH WIND       PRES   REMARKS
AVALON           N/A     55 N/A N/A MISG        N/A                   
FULLERTON      CLEAR     62  53  72 E6        29.90S                  
*GETTY CENTER    N/A     64  34  32 N9G20       N/A                   
HAWTHORNE      CLEAR     63  51  65 E8        29.90R                  
*LEO CARRILLO    N/A     55  49  80 W8          N/A                   
*LOS ALAMITOS  FAIR      60  54  82 E6        29.90S                  
*REDONDO BEACH   N/A     61  50  67 CALM      29.89S                  
SANTA ANA      CLEAR     60  54  80 E5        29.90F                  
STA MONICA APT CLEAR     69  37  30 MISG      29.89S                  
*UCLA            N/A     68  36  30 N2        29.87R                  

$$

CAZ547-548-048-260900-
LA COUNTY VALLEYS AND INLAND EMPIRE

  
CITY           SKY/WX    TMP DP  RH WIND       PRES   REMARKS
BURBANK        PTCLDY    64  44  48 E8        29.90S                  
VAN NUYS       PTCLDY    67  36  31 NW10      29.89F                  

CITY           SKY/WX    TMP DP  RH WIND       PRES   REMARKS
CORONA AIRPORT MOSUNNY   56  46  69 CALM      29.91S                  
*CHATSWORTH      N/A     65  38  37 CALM      29.89S                  
CHINO          PTCLDY    56  46  69 E3        29.91S                  
*CLAREMONT       N/A     55  44  67 N3          N/A                   
MARCH AFB      PTCLDY    53  43  70 E5        29.91F                  
*NORTHRIDGE      N/A     66  32  28 NW6G15      N/A                   
ONTARIO        MOCLDY    62  45  53 CALM      29.91R                  
*PASADENA        N/A     63  50  63 E1          N/A                   
RIVERSIDE      PTCLDY    59  47  64 CALM      29.91S                  
SAN BERNARDINO FAIR      58  42  55 CALM      29.92S                  
*SAN RAFAEL HI   N/A     57  44  62 E5          N/A                   
*SAUGUS          N/A     61  36  39 NW7         N/A                   
*WHITEMAN AP   NOT AVBL                                               
*WHITTIER HILL   N/A     54  49  84 SE7         N/A                   
*WOODLAND HILL   N/A     66  36  32 SW5         N/A                   

$$

CAZ054-055-260900-
LA AND SAN BERNARDINO COUNTY MOUNTAINS

  
CITY           SKY/WX    TMP DP  RH WIND       PRES   REMARKS
*ACTON           N/A     59  34  39 E14         N/A                   
*BIG BEAR AIRP MOSUNNY   37  28  70 CALM      30.09S                  
*BIG PINES       N/A     46  22  38 CALM        N/A                   
SANDBERG       MOCLDY    48  36  63 N39G52    30.02F                  

$$

CAZ028-029-059-060-099-260900-
ANTELOPE VALLEY AND SURROUNDING AREAS

  
CITY           SKY/WX    TMP DP  RH WIND       PRES   REMARKS
LANCASTER      MOCLDY    56  36  47 W21G28    29.96F                  
PALMDALE       MOCLDY    56  37  49 W23G31    29.99F                  
*POPPY PARK      N/A     55  38  52 W36G56      N/A                   

CITY           SKY/WX    TMP DP  RH WIND       PRES   REMARKS
29 PALMS       CLEAR     61  30  31 NW12      29.99R                  
BARSTOW/DAGGET PTCLDY    60  35  39 SW16      29.94S                  
BISHOP         MOCLDY    58  35  42 N10       29.94F                  
CHINA LAKE     PTCLDY    56  34  43 CALM      29.90S                  
EDWARDS AFB    MOCLDY    56  36  46 SW15      29.93S                  
MOJAVE         CLEAR     55  37  50 NW32G45   29.92F                  
NEEDLES        PTCLDY    73  17  12 NW12      29.82R                  
VICTORVILLE    MOCLDY    54  36  50 W15G21    29.99S                  

$$

CAZ039-040-260900-
VENTURA AND SANTA BARBARA COUNTY COAST

  
CITY           SKY/WX    TMP DP  RH WIND       PRES   REMARKS
CAMARILLO      CLEAR     56  49  77 CALM      29.90F                  
NWS OXNARD       N/A     56  49  78 CALM      29.90S                  
OXNARD AIRPORT CLEAR     56  50  80 E5        29.91S                  
*POINT MUGU    CLEAR     53  49  86 CALM      29.91F                  
SBA APT/GOLETA CLEAR     59  47  64 SW8       29.92F                  
*SANTA BARBARA   N/A     62  44  52 CALM      29.99F                  
*VENTURA         N/A     56  50  79 NE3       29.89S                  

$$

CAZ044-045-260900-
VENTURA COUNTY VALLEYS

  
CITY           SKY/WX    TMP DP  RH WIND       PRES   REMARKS
*SIMI VALLEY     N/A     64  40  40 NE5       29.87S                  
*WESTLAKE VILL   N/A     51  45  80 CALM      29.90S                  
*OJAI            N/A     56  41  58 CALM      29.85F                  
*FILLMORE        N/A     55  49  79 NE1       29.94F                  

$$

CAZ053-260900-
VENTURA COUNTY MOUNTAINS

  
CITY           SKY/WX    TMP DP  RH WIND       PRES   REMARKS
*LOCKWOOD VLY    N/A     37  28  70 MISG        N/A                   
*ROSE VALLEY     N/A     54  37  54 MISG        N/A                   

$$

CAZ034-035-036-260900-
CENTRAL COAST AND SANTA YNEZ VALLEY

  
CITY           SKY/WX    TMP DP  RH WIND       PRES   REMARKS
SAN LUIS OBISP CLEAR     53  49  86 NW9       30.06R                  
SANTA MARIA    CLEAR     51  50  96 NW9       30.06R                  

CITY           SKY/WX    TMP DP  RH WIND       PRES   REMARKS
*CAL POLY SLO    N/A     52  50  93 NW2         N/A                   
*LOMPOC        CLEAR     53  49  86 W7        30.04S                  
*PISMO BEACH     N/A     55  50  81 NE1       30.06R                  
*SANTA YNEZ    FAIR      46  45  93 CALM      30.00S                  

$$

CAZ037-038-051-260900-
SAN LUIS OBISPO COUNTY INTERIOR AND CUYAMA VALLEY

  
CITY           SKY/WX    TMP DP  RH WIND       PRES   REMARKS
*CUYAMA          N/A     56  39  53 CALM      30.04S                  
PASO ROBLES    CLEAR     53  49  86 NW5       30.08F                  

$$

CAZ032-033-061-260900-
SOUTHERN DESERTS

  
CITY           SKY/WX    TMP DP  RH WIND       PRES   REMARKS
BLYTHE         CLEAR     71  33  24 NW10      29.79S                  
IMPERIAL       PTCLDY    68  47  46 W10       29.78F                  
PALM SPRINGS   CLEAR     72  42  34 W7        29.84R                  
THERMAL        PTCLDY    72  44  36 N12       29.79S                  

$$

ELSEWHERE ACROSS THE WESTERN UNITED STATES AND MEXICO

  
CITY           SKY/WX    TMP DP  RH WIND       PRES   REMARKS
DENVER, CO     CLOUDY    31  25  78 N3        29.84F                  
GRAND CANYON,  CLEAR     28  15  58 CALM      29.99R                  
HONOLULU, HI   PTCLDY    77  66  68 NE8       30.10R                  
KAHULUI, MAUI  CLEAR     74  64  71 E3        30.08R                  
LAKE TAHOE, CA CLOUDY    42  37  82 S5        30.10F                  
LAS VEGAS, NV  PTCLDY    64  14  14 SW6       29.86S                  
MAMMOTH LAKES, FAIR      42  30  64 N6        30.09F                  
MEXICO CITY, M PTCLDY    64  25  22 E7        30.18F                  
PHOENIX, AZ    CLEAR     70  31  23 SW3       29.77S                  
PORTLAND, OR   CLOUDY    53  48  83 S5        29.90R                  
RENO, NV       MOCLDY    53  37  54 NW10      30.05S                  
SALT LAKE CITY MOCLDY    44  36  73 SE8       29.93S                  
SAN DIEGO, CA  MOCLDY    62  56  80 SW3       29.93S                  
SAN FRANCISCO, MOCLDY    57  52  83 W14       30.11R                  
SAN JOSE, CA   CLOUDY    59  51  75 N3        30.10F                  
SEATTLE, WA    CLOUDY    50  49  96 S14       29.78S                  
TIJUANA, MEX   PTCLDY    57  50  77 CALM      29.95                   

$$
  
STATION/POSITION TIME  TEMP    WIND        PRES    VSBY  WAVE
                       AIR SEA DIR/SP/G                  HT/PER
                 (UTC) (F)     (DEG/KT/KT) (MB)    (MI)  (FT/S)
POINT ARGUELLO B NOT AVBL
WEST SANTA BARBA 0650   54 51  330/ 21/ 25 1015.9F         9/ 7
POINT CONCEPTION NOT AVBL
EAST SANTA BARBA 0751                        N/A           6/ 8
SANTA MONICA BAY 0750   61 62  300/ 14/ 17 1012.0F         7/ 7

Return to Home page


Western Regional Climate Center, wrcc@dri.edu